"Pseudo-MPEC" for P10OSDm

Created 2019 Jun 19 17:07:34 UT using Find_Orb

Click here for an explanation of pseudo-MPECs

 
 Astrometry: 
     P10OSDm  C2019 06 07h1O9@;/J:ytHdcTx61iJWwL``oI]_9M)h@#^OMx)Astrometry!FF51
     P10OSDm  C2019 06 07GdTyT@B$w?P7YEap*Y01xR?6[Fi!i?fD@`EoO,9uG0YtEvLQ;cf;F51
     P10OSDm  C2019 06 07R+=AJ]?i#]),/R9#'redacted;`3:Aa_=363v#((bEJf(C/`'9bgF51
     P10OSDm  C2019 06 07n%OAljS)3A@F=wOF9NJ%WmiqN(3p*(vd1q0U3_G_YGVVvVIclickF51
     P10OSDm  C2019 06 09%(\Nq-Vherey@L^#4t2ib*Nci-0F=aff]Ie@/utOHXR%4@S/o+8XF51
     P10OSDm  C2019 06 09NyCN=*+]Jh,-Mi(!r*YJ/GD=G.2,Fk[E4/r:Tv\`igkLhcV!h@HfF51
     P10OSDm  C2019 06 09]JtoV@:k@NU6Ijv`+ROLCU;afp),soiCj8SdSy^[TO\#?2cJemwbF51
     P10OSDm  C2019 06 09l#h,t5V=20@dc?#xsRZPKGnP2;'t=Mx,i^Z%:Rk:b1Y%P6##B8TmF51
     P10OSDm KC2019 06 10_HwK=$EZQwfu6GTPyEE;WX@anwe65s]Nu[y8_yrkP9ff:@=m?.vtL01
     P10OSDm pC2019 06 10(8h%WXoP;C%Pwq6Pi[\GmvAdC`ZQ7T3Ov9`TbjI_o\fjf/%mF:vGL01
     P10OSDm  C2019 06 10X@a8KxF_'BRgP:WSS-6FQV0VIV\=R]uLEgxw37%/iF9]XG68T_`]F51
     P10OSDm  C2019 06 10o`%S$W6S*5A\3.slr8eyJ2icAp'SqC9vvq-gKkFM5T'tl;D$+aEUF51
     P10OSDm  C2019 06 10cLb4J!dMrgx=jxEYREa3b5%WY]bu]q^cYs35]hb/U:'y8LYDqtWYF51
     P10OSDm  C2019 06 10/\khtS=W%@^forO.sfv5PQOWQg)d2T^ChmY5fS1k/QP^_#$[9TghF51
     P10OSDm KC2019 06 11e0H\v#@?k3yJHyj!d\0fHUiM7\[$KGv5oX1LxPqePu3)finHSdhVH21
     P10OSDm KC2019 06 11?1]0n4s?d.ivs;NIg9Sb'7Np+explanationP#IYhPyD5gq.,%w(H21
     P10OSDm KC2019 06 11xmW!ZJ/BQFK!+!%Tt^B$UujcsxoRPQPCb+W3:S:$@EZEyT)v2^K4H21

Station data:
(F51) Pan-STARRS 1, Haleakala  (N20.707235 W156.255910)  US/Hawaii.
   Observers N. Primak, A. Schultz, S. Watters, J. Thiel, T. Goggia. Measurer
   PS1 Science Consortium. 1.8-m Ritchey-Chrétien + CCD.
(H21) Astronomical Research Observatory, Westfield  (N39.483057 W87.968270)
   US/Illinois. 0.76-m f/3.0 astrograph + CCD.
(L01) Višnjan Observatory, Tičan  (N45.290900 E13.749300)  Croatia.
   Observers K. Korlević, E. Pettarin. Measurer E. Pettarin. 1.0-m f/2.9
   reflector + CCD.

Orbital elements:  P10OSDm
   Perihelion 2019 Apr 29.119506 +/- 0.0267 TT =  2:52:05 (JD 2458602.619506)
Epoch 2019 Jun 11.0 TT = JDT 2458645.5   Earth MOID: 0.0120   Ma: 0.0856
M  21.83440909 +/- 0.08             (J2000 ecliptic)          AutoNEOCP
n   0.50919210 +/- 0.00162          Peri.  341.47231 +/- 0.026
a   1.55315550 +/- 0.00329          Node   228.59396 +/- 0.020
e   0.3806156 +/- 0.00138           Incl.    2.46927 +/- 0.006
P   1.94/706.99d           H 26.8   G  0.15   U  8.4  
q 0.96200018 +/- 0.000101    Q 2.14431083 +/- 0.00669
From 17 observations 2019 June 7-11; mean residual 0".34
Residuals in arcseconds: 
190607 F51  .52+  .24-    190609 F51  .26+  .11-    190610 F51  .37+  .16-    
190607 F51  .36+  .07-    190609 F51  .38+  .12-    190610 F51  .35+  .27-    
190607 F51  .08-  .31+    190610 L01  .26-  .02-    190611 H21  .24+  .27+    
190607 F51  .77-  .20+    190610 L01  1.2-  .04-    190611 H21  .15+  .15+    
190609 F51  .14+  .01+    190610 F51  .37+  .09-    190611 H21  .21-  .17+    
190609 F51  .27+  .04-    190610 F51  .09+  .24-    

Ephemerides (geocentric):
Date (UTC) HH   RA              Dec         delta   r     elong  mag " sig PA
---- -- -- --  -------------   -----------  ------ ------ -----  --- ---- ---
2019 06 19 17  17 39 02.229   -04 18 25.71  .09163 1.1030 160.7 22.7 1.94 120
2019 06 19 18  17 39 10.168   -04 19 49.56  .09183 1.1032 160.7 22.7 1.94 120
2019 06 19 19  17 39 18.074   -04 21 13.13  .09202 1.1034 160.7 22.7 1.95 120
2019 06 19 20  17 39 25.947   -04 22 36.42  .09222 1.1036 160.7 22.7 1.95 120
2019 06 19 21  17 39 33.788   -04 23 59.43  .09242 1.1038 160.8 22.7 1.96 120
2019 06 19 22  17 39 41.596   -04 25 22.16  .09261 1.1040 160.8 22.7 1.97 120
2019 06 19 23  17 39 49.373   -04 26 44.61  .09281 1.1042 160.8 22.7 1.97 120
2019 06 20 00  17 39 57.118   -04 28 06.78  .09300 1.1044 160.8 22.8 1.98 120
2019 06 20 01  17 40 04.832   -04 29 28.68  .09320 1.1046 160.8 22.8 1.98 120
2019 06 20 02  17 40 12.514   -04 30 50.31  .09340 1.1048 160.9 22.8 1.99 120
2019 06 20 03  17 40 20.164   -04 32 11.67  .09359 1.1050 160.9 22.8 1.99 119
2019 06 20 04  17 40 27.784   -04 33 32.76  .09379 1.1052 160.9 22.8 2.00 119
2019 06 20 05  17 40 35.373   -04 34 53.59  .09399 1.1054 160.9 22.8 2.01 119
2019 06 20 06  17 40 42.931   -04 36 14.14  .09418 1.1056 160.9 22.8 2.01 119
2019 06 20 07  17 40 50.459   -04 37 34.43  .09438 1.1058 161.0 22.8 2.02 119
2019 06 20 08  17 40 57.957   -04 38 54.46  .09458 1.1060 161.0 22.8 2.02 119
2019 06 20 09  17 41 05.424   -04 40 14.23  .09478 1.1062 161.0 22.8 2.03 119
2019 06 20 10  17 41 12.861   -04 41 33.74  .09497 1.1064 161.0 22.8 2.03 119
2019 06 20 11  17 41 20.269   -04 42 52.99  .09517 1.1066 161.0 22.8 2.04 119
2019 06 20 12  17 41 27.646   -04 44 11.98  .09537 1.1068 161.1 22.8 2.04 119
2019 06 20 13  17 41 34.995   -04 45 30.72  .09557 1.1070 161.1 22.8 2.05 119
2019 06 20 14  17 41 42.314   -04 46 49.20  .09576 1.1072 161.1 22.8 2.06 119
2019 06 20 15  17 41 49.604   -04 48 07.43  .09596 1.1074 161.1 22.8 2.06 119
2019 06 20 16  17 41 56.865   -04 49 25.41  .09616 1.1076 161.1 22.8 2.07 118
2019 06 20 17  17 42 04.097   -04 50 43.14  .09636 1.1078 161.2 22.8 2.07 118
2019 06 20 18  17 42 11.300   -04 52 00.63  .09656 1.1080 161.2 22.8 2.08 118
2019 06 20 19  17 42 18.475   -04 53 17.86  .09675 1.1082 161.2 22.8 2.08 118
2019 06 20 20  17 42 25.622   -04 54 34.85  .09695 1.1084 161.2 22.8 2.09 118
2019 06 20 21  17 42 32.740   -04 55 51.60  .09715 1.1086 161.2 22.8 2.09 118
2019 06 20 22  17 42 39.831   -04 57 08.10  .09735 1.1088 161.3 22.8 2.10 118
2019 06 20 23  17 42 46.894   -04 58 24.37  .09755 1.1090 161.3 22.9 2.10 118
2019 06 21 00  17 42 53.929   -04 59 40.39  .09775 1.1092 161.3 22.9 2.11 118
2019 06 21 01  17 43 00.936   -05 00 56.17  .09795 1.1094 161.3 22.9 2.11 118
2019 06 21 02  17 43 07.916   -05 02 11.72  .09814 1.1096 161.3 22.9 2.12 118
2019 06 21 03  17 43 14.869   -05 03 27.03  .09834 1.1098 161.3 22.9 2.13 118
2019 06 21 04  17 43 21.795   -05 04 42.11  .09854 1.1100 161.4 22.9 2.13 118
2019 06 21 05  17 43 28.694   -05 05 56.96  .09874 1.1102 161.4 22.9 2.14 117
2019 06 21 06  17 43 35.566   -05 07 11.57  .09894 1.1104 161.4 22.9 2.14 117
2019 06 21 07  17 43 42.411   -05 08 25.95  .09914 1.1106 161.4 22.9 2.15 117
2019 06 21 08  17 43 49.230   -05 09 40.10  .09934 1.1108 161.4 22.9 2.15 117
2019 06 21 09  17 43 56.023   -05 10 54.03  .09954 1.1110 161.4 22.9 2.16 117
2019 06 21 10  17 44 02.789   -05 12 07.73  .09974 1.1112 161.5 22.9 2.16 117
2019 06 21 11  17 44 09.530   -05 13 21.20  .09994 1.1114 161.5 22.9 2.17 117
2019 06 21 12  17 44 16.245   -05 14 34.45  .10014 1.1117 161.5 22.9 2.17 117
2019 06 21 13  17 44 22.933   -05 15 47.48  .10034 1.1119 161.5 22.9 2.18 117
2019 06 21 14  17 44 29.597   -05 17 00.28  .10054 1.1121 161.5 22.9 2.18 117
2019 06 21 15  17 44 36.235   -05 18 12.87  .10074 1.1123 161.6 22.9 2.19 117
2019 06 21 16  17 44 42.847   -05 19 25.24  .10094 1.1125 161.6 22.9 2.19 117